Location: Balsareny
(41.8670°N, 1.8830°E)
Time: 00:35:48
(UTC+01:00)

ISS - Pass Details

Date: 08 December 2021
Orbit: 413 x 422 km, 51.6° (Epoch: 25 January)

Event Time Altitude Azimuth Distance (km) Brightness Sun altitude
Rises 17:51:16 0° 305° (NW) 2,385 0.5 -5.8°
Reaches altitude 10° 17:53:23 10° 306° (NW) 1,515 -0.5 -6.1°
Maximum altitude 17:56:48 82° 32° (NNE) 431 -3.8 -6.7°
Drops below altitude 10° 18:00:10 10° 123° (ESE) 1,500 -1.3 -7.3°
Enters shadow 18:03:37 -5° 125° (SE) 2,919 0.2 -7.8°
